Port Angeles, WA
on Wednesday, November 21, 2012

Wednesday
Previous Day Next Day
Daily Summary
 ActualAverageRecord
Temperature
Mean Temperature °F °F  
Max Temperature 46°F 48°F 56°F (1959)
Min Temperature 35°F 36°F 17°F (1977)
Degree Days
Heating Degree Days 22    
Moisture
Dew Point 38°F   
Average Humidity 85    
Maximum Humidity 93    
Minimum Humidity 76    
Precipitation
Precipitation 0.15 in in in ()
Wind
Wind Speed 8 mph   
Max Wind Speed 14 mph   
Max Gust Speed mph   
Visibility 10 miles   
Events Rain   
Averages and records for this station are not official NWS values.
Key: T is trace of precipitation, MM is missing value
Source: NWS Daily Summary
Seasonal Weather Averages
Time(PST)TemperatureDew PointHumidity Pressure Visibility Wind DirectionWind SpeedGust SpeedPrecipitationEvents Conditions
12:00 AM 44.1°F 41.0°F 89% 29.56 in 10.0 miles SE 9.2 mph - 0.00 in Rain Light Rain
12:53 AM 43.0°F 41.0°F 93% 29.54 in 10.0 miles SE 5.8 mph - 0.00 in Rain Light Rain
1:53 AM 43.0°F 39.9°F 89% 29.51 in 10.0 miles WSW 4.6 mph - 0.00 in Rain Light Rain
2:13 AM 42.1°F 39.0°F 89% 29.50 in 10.0 miles SW 6.9 mph - 0.02 in Rain Light Rain
2:24 AM 42.1°F 39.0°F 89% 29.50 in 10.0 miles WSW 8.1 mph - 0.02 in Rain Light Rain
2:48 AM 42.8°F 37.4°F 81% 29.50 in 10.0 miles WSW 10.4 mph - 0.02 in Rain Light Rain
2:53 AM 42.1°F 37.9°F 85% 29.50 in 10.0 miles WSW 10.4 mph - 0.02 in Rain Light Rain
3:10 AM 41.0°F 37.9°F 89% 29.50 in 10.0 miles WSW 11.5 mph - 0.02 in Rain Light Rain
3:53 AM 41.0°F 37.9°F 89% 29.51 in 10.0 miles WSW 12.7 mph - 0.02 in Rain Light Rain
4:53 AM 39.9°F 37.9°F 93% 29.56 in 10.0 miles West 6.9 mph - 0.02 in   Overcast
5:01 AM 41.0°F 37.9°F 89% 29.55 in 10.0 miles West 11.5 mph - N/A   Overcast
5:09 AM 39.9°F 37.9°F 93% 29.56 in 10.0 miles West 11.5 mph - N/A   Overcast
5:30 AM 39.9°F 37.0°F 89% 29.57 in 10.0 miles WNW 11.5 mph - N/A   Overcast
5:53 AM 39.9°F 37.9°F 93% 29.60 in 10.0 miles West 10.4 mph - 0.00 in   Overcast
6:53 AM 39.9°F 37.0°F 89% 29.62 in 10.0 miles West 8.1 mph - 0.00 in   Partly Cloudy
7:53 AM 42.8°F 37.4°F 81% 29.65 in 10.0 miles WSW 9.2 mph - N/A   Scattered Clouds
8:53 AM 42.1°F 37.0°F 82% 29.72 in 10.0 miles ESE 6.9 mph - N/A   Clear
9:53 AM 45.0°F 39.9°F 82% 29.75 in 10.0 miles Calm Calm - N/A   Overcast
10:53 AM 46.9°F 39.9°F 77% 29.79 in 10.0 miles ESE 6.9 mph - 0.00 in   Overcast
11:53 AM 46.9°F 39.9°F 77% 29.81 in 10.0 miles ESE 6.9 mph - N/A   Mostly Cloudy
12:19 PM 46.0°F 39.9°F 79% 29.82 in 10.0 miles Calm Calm - 0.00 in Rain Light Rain
12:26 PM 46.0°F 39.9°F 79% 29.83 in 7.0 miles Calm Calm - 0.01 in Rain Rain
12:53 PM 44.1°F 37.9°F 79% 29.86 in 2.0 miles West 6.9 mph - 0.06 in Rain Rain
1:05 PM 44.1°F 39.9°F 85% 29.86 in 4.0 miles West 5.8 mph - 0.01 in Rain Light Rain
1:34 PM 44.1°F 39.9°F 85% 29.88 in 10.0 miles WSW 5.8 mph - 0.02 in   Overcast
1:53 PM 43.0°F 39.0°F 86% 29.89 in 10.0 miles West 4.6 mph - 0.02 in Rain Light Rain
2:53 PM 43.0°F 39.0°F 86% 29.94 in 10.0 miles West 6.9 mph - 0.01 in Rain Light Rain
3:53 PM 42.1°F 37.9°F 85% 30.00 in 10.0 miles WSW 10.4 mph - 0.00 in Rain Light Rain
4:53 PM 41.0°F 37.0°F 86% 30.03 in 10.0 miles WSW 10.4 mph - 0.00 in   Clear
5:53 PM 41.0°F 36.0°F 82% 30.07 in 10.0 miles West 10.4 mph - N/A   Clear
6:53 PM 41.0°F 36.0°F 82% 30.11 in 10.0 miles West 10.4 mph - N/A   Clear
7:53 PM 41.0°F 35.1°F 79% 30.15 in 10.0 miles West 12.7 mph - N/A   Clear
8:53 PM 41.0°F 34.0°F 76% 30.18 in 10.0 miles WSW 13.8 mph - N/A   Clear
9:53 PM 39.9°F 34.0°F 79% 30.22 in 10.0 miles SW 10.4 mph - N/A   Clear
10:53 PM 39.0°F 34.0°F 82% 30.25 in 10.0 miles SSW 8.1 mph - N/A   Clear
11:53 PM 35.1°F 33.1°F 92% 30.26 in 10.0 miles Calm Calm - N/A   Clear
Moon Phase
Nov. 21 Nov. 28 Dec. 06 Dec. 13 Dec. 20
Sunrise:07:30 AM (PST) Moon Rise:01:13 PM (PST)11/21
Sunset:04:29 PM (PST) Moon Set:12:27 AM (PST)11/21

Copyright © 2014 The Weather Underground, Inc.